Probability
6 5 5 6 4 1 0 0 0 0 0 0 0 0 0 0 0 0 0 0 0 0 0 0 0 0 0 0 0 0 0 0 0 0 0 0 0 0 0 0 0 0 0 0 0 0 0 0 0
4 4 5 5 3 0 0 0 0 0 0 0 0 0 0 0 0 0 0 0 0 0 0 0 0 0 0 0 0 0 0 0 0 0 0 0 0 0 0 0 0 0 0 0 0 0 0 0 0
3 4 4 3 1 0 0 0 1 1 0 0 0 0 0 0 0 0 0 0 0 0 0 0 0 0 0 0 0 0 0 0 0 0 0 0 0 0 0 0 0 0 0 0 0 0 0 0 0
4 4 3 1 0 0 0 1 2 2 1 1 0 0 0 1 2 2 1 1 1 1 1 0 0 0 0 0 0 0 0 0 0 0 0 0 0 0 0 0 0 0 0 0 0 0 0 0 0
3 3 2 0 0 0 1 3 5 5 4 2 2 1 1 3 6 5 3 3 4 3 2 2 2 1 0 0 0 0 0 0 0 0 0 0 0 0 0 0 0 0 0 0 0 0 0 0 0
1 1 0 0 0 0 2 4 5 6 5 3 3 3 3 6 8 8 6 5 6 6 4 3 3 2 1 0 0 0 0 0 0 0 0 0 0 0 0 0 0 0 0 0 0 0 0 0 0
0 0 0 0 0 0 1 3 4 4 4 3 3 4 5 8 11 11 10 9 8 8 6 4 3 3 2 0 0 0 0 0 0 0 0 0 0 0 0 0 0 0 0 0 0 0 0 0 0
0 0 0 0 0 0 1 2 2 3 3 3 4 5 7 13 18 18 15 13 11 8 5 3 2 2 1 0 0 0 0 0 0 0 0 0 0 0 0 0 0 0 0 0 0 0 0 0 0
0 0 0 0 0 0 1 2 3 4 5 5 6 9 14 21 30 29 22 18 14 9 4 1 0 0 0 0 0 0 0 0 0 0 0 0 0 0 0 0 0 0 0 0 0 0 0 0 0
0 0 0 0 0 1 2 2 3 5 8 9 10 16 23 29 37 38 31 24 18 10 4 1 0 0 0 0 0 0 0 0 0 0 0 0 0 0 0 0 0 0 0 0 0 0 0 0 0
0 0 0 0 0 1 2 2 3 5 8 10 15 22 27 30 35 38 36 30 22 13 6 2 1 0 0 0 0 0 0 0 0 0 0 0 0 0 0 0 0 0 0 0 0 0 0 0 0
0 0 0 0 0 1 2 3 3 4 7 13 18 23 26 26 28 33 34 31 27 18 9 4 2 1 0 1 1 0 0 0 0 0 0 0 0 0 0 0 0 0 0 0 0 0 0 0 0
0 0 0 0 0 1 2 4 4 5 12 19 21 22 23 23 25 30 33 33 29 23 14 9 8 6 4 3 2 1 1 0 0 0 0 0 0 0 0 0 0 0 0 0 0 0 0 0 0
0 0 0 0 0 1 4 5 5 9 18 25 24 23 22 23 26 32 36 34 30 25 20 18 18 15 10 6 5 4 2 1 0 0 1 0 0 0 0 0 0 0 0 0 0 0 0 0 0
0 0 0 0 0 2 5 7 7 13 24 29 27 26 26 27 30 35 37 35 31 29 27 26 25 22 15 9 6 5 3 1 1 0 1 1 1 0 0 0 0 0 0 0 0 0 0 0 0
0 0 0 0 0 1 5 9 10 18 29 33 31 30 30 32 34 36 37 36 34 33 31 29 27 23 16 9 8 7 4 3 2 1 1 2 2 1 1 0 0 0 0 0 0 0 0 0 0
0 0 0 0 0 0 2 7 12 21 32 38 37 36 36 37 38 39 41 41 37 34 32 29 27 23 17 12 10 9 6 4 4 2 1 2 2 2 2 1 1 1 1 1 0 1 1 1 0
0 0 0 0 0 0 1 4 11 22 34 40 40 40 41 42 42 44 47 47 41 34 31 29 26 23 20 15 12 11 8 6 5 3 1 1 1 2 3 3 2 2 2 2 1 1 2 1 1
0 0 0 0 0 0 1 4 9 20 34 41 40 43 47 47 47 49 53 53 46 37 33 30 26 22 20 16 13 10 7 6 5 3 1 0 0 2 3 3 3 3 3 3 2 1 1 1 0
0 0 0 0 0 0 1 2 6 15 28 37 41 46 51 52 51 54 56 56 51 44 39 35 28 21 17 14 10 6 5 4 3 1 1 1 0 1 2 3 3 3 3 3 3 2 0 0 0
0 0 0 0 0 0 0 1 2 8 19 31 40 50 55 56 55 56 57 55 50 46 43 39 30 20 14 11 6 4 3 2 1 1 2 2 1 0 1 2 3 4 4 3 2 1 0 0 0
0 0 0 0 0 0 0 0 1 5 15 27 39 51 58 58 56 55 55 52 46 43 41 38 32 22 15 10 7 3 2 1 0 1 2 2 2 1 0 1 2 3 4 3 1 0 0 0 0
0 0 0 0 0 0 0 0 1 4 12 24 38 49 56 58 55 50 48 46 42 40 40 38 35 27 19 14 9 4 2 1 0 0 1 2 2 1 1 0 0 2 2 1 0 0 0 0 0
0 0 0 0 0 0 0 0 1 4 10 22 38 48 53 55 52 44 40 39 39 40 42 40 36 31 23 16 10 5 3 2 1 2 2 3 3 3 2 1 1 1 1 0 0 0 0 0 0
0 0 0 0 0 0 0 0 1 4 10 24 40 47 50 51 47 41 37 35 38 42 45 42 36 31 25 17 9 5 3 3 4 4 3 3 3 3 3 2 2 2 1 1 1 0 0 0 0
0 0 0 0 0 0 0 1 2 7 15 27 39 43 45 46 43 38 35 36 40 44 45 40 33 29 25 17 9 5 3 4 5 4 3 3 3 2 2 2 1 1 1 1 1 0 0 0 0
0 0 0 0 0 0 0 1 3 10 20 29 35 37 39 42 40 35 34 36 39 41 41 36 30 26 24 19 12 7 5 5 5 4 4 3 2 2 2 2 2 1 1 1 1 0 0 0 0
0 0 0 0 0 0 0 1 3 10 20 28 31 32 33 37 37 35 35 36 36 38 38 33 27 23 22 19 14 9 7 6 6 6 6 5 4 3 3 3 3 2 1 0 0 0 0 0 0
0 0 0 0 0 0 0 0 1 6 14 23 27 29 30 31 34 36 38 37 36 37 37 31 25 21 18 16 13 9 7 6 6 5 5 5 4 3 2 2 2 2 1 0 0 0 0 0 0
0 0 0 0 0 0 0 0 1 3 10 18 23 27 29 29 32 37 40 39 37 38 37 30 24 19 15 13 11 7 6 5 4 3 3 3 2 1 1 1 1 1 1 0 0 0 0 0 0
Wind_Speed
5 3 3 1 5 6 6 6 8 9 7 8 10 10 9 7 6 7 4 13 14 11 8 12 14 14 14 14 14 14 13 13 13 13 13 13 13 13 13 13 13 13 13 13 13 12 12 12 12
3 2 2 3 6 5 4 6 11 10 11 12 12 12 10 9 10 12 8 12 14 12 8 10 15 14 14 14 13 13 13 13 13 13 13 13 12 12 12 12 12 12 12 12 12 11 11 11 11
3 2 2 4 3 5 5 7 12 11 10 9 8 7 7 9 11 8 10 15 12 10 8 11 16 15 14 13 13 13 13 13 12 12 12 12 12 11 12 12 11 11 11 11 11 10 10 10 10
0 2 4 5 4 4 8 9 12 12 9 8 9 8 6 8 9 13 17 16 13 9 7 10 16 15 14 13 13 13 13 12 12 12 11 11 11 11 11 11 11 11 11 10 10 10 9 9 9
2 4 5 4 4 5 7 10 11 11 7 8 10 9 5 6 17 20 18 16 14 10 7 9 16 15 14 14 13 13 12 12 12 11 11 11 11 11 11 11 11 10 10 9 9 9 9 8 8
4 4 5 2 3 4 5 10 14 14 12 11 11 8 5 11 18 18 16 14 14 12 9 9 15 15 14 14 13 13 12 12 11 11 11 11 11 11 11 10 10 10 9 9 8 8 7 7 7
3 4 2 2 2 4 5 7 12 11 11 8 9 8 6 11 14 16 15 14 13 12 10 7 8 10 13 14 13 13 12 12 11 11 11 11 10 11 10 10 10 9 9 8 7 7 6 6 5
4 4 2 1 4 4 4 5 9 12 9 10 8 9 9 12 14 15 13 12 11 10 9 7 6 6 6 8 12 13 12 11 11 11 10 10 10 10 10 9 8 9 8 7 6 6 5 4 4
4 5 1 3 5 4 5 7 6 7 10 6 4 7 12 17 17 16 12 10 9 10 7 7 7 6 5 5 9 10 11 11 10 8 10 8 3 4 5 7 8 8 7 7 6 4 3 2 2
5 4 5 5 6 6 6 9 7 7 8 7 8 10 15 17 17 17 15 14 12 11 9 8 8 7 6 6 5 3 4 4 4 3 4 3 2 2 4 7 8 8 7 6 5 3 2 1 1
4 5 4 4 6 8 7 6 6 11 7 10 15 17 16 15 14 14 14 14 13 12 10 9 9 8 7 4 4 3 2 3 3 4 4 3 3 2 2 2 3 3 4 2 2 1 0 0 1
1 2 4 4 4 7 8 7 6 7 10 13 17 18 16 15 13 13 13 12 11 11 10 9 8 7 6 6 5 4 3 2 3 3 5 4 3 2 2 1 2 1 1 1 1 0 1 1 1
3 1 1 2 3 6 8 8 8 6 11 14 16 15 14 13 11 9 11 11 11 11 10 9 8 8 6 6 4 5 4 4 4 3 4 4 4 3 3 2 2 2 2 2 1 1 1 1 1
4 2 2 1 1 4 10 7 7 8 14 15 15 13 13 13 12 10 11 10 10 10 10 8 9 8 7 5 4 4 4 4 4 4 5 5 4 4 3 3 2 2 2 2 2 2 1 1 1
5 5 6 3 0 2 9 6 6 11 14 15 14 13 12 11 11 12 13 12 12 12 10 9 9 8 8 6 5 4 4 4 4 4 5 6 5 5 4 3 2 3 3 3 2 1 1 1 1
6 5 3 6 1 3 9 5 5 12 14 13 12 11 10 9 10 11 12 11 11 11 10 10 9 8 7 6 5 3 3 4 3 3 4 6 6 5 4 3 3 3 3 2 2 2 1 1 1
5 2 5 6 3 3 6 5 7 11 13 12 10 8 9 8 8 9 11 12 12 12 11 9 8 8 7 6 4 3 3 3 3 3 4 5 6 5 4 3 3 3 2 2 3 2 2 2 1
4 3 4 4 3 5 5 4 7 9 12 12 10 7 7 9 9 9 10 11 11 10 10 9 8 8 6 4 3 2 2 2 2 3 3 5 4 5 4 3 3 3 2 1 1 2 1 2 2
5 3 4 4 2 4 5 5 7 8 9 10 9 9 8 7 6 8 9 11 10 9 9 9 9 8 6 3 3 3 2 2 2 2 4 5 5 5 4 3 3 3 3 3 3 2 2 1 1
3 2 3 4 1 3 3 1 3 6 10 12 14 12 12 9 7 8 9 9 10 10 9 9 9 8 7 5 4 3 3 2 2 2 3 4 5 5 4 4 3 3 3 3 3 3 2 1 2
4 2 3 3 3 5 5 4 2 2 3 6 9 10 12 14 12 11 11 10 10 10 10 9 9 8 7 6 4 2 1 1 1 2 2 3 4 5 4 4 4 4 4 3 3 3 4 2 1
4 5 2 1 4 2 2 1 5 3 2 5 7 8 10 11 10 10 10 9 10 9 9 8 8 8 7 7 5 6 4 3 3 3 3 3 4 4 4 4 4 4 3 4 4 4 3 3 2
5 3 1 2 4 3 3 3 6 0 2 5 8 10 9 10 10 10 10 10 9 9 8 7 7 7 7 6 7 6 4 3 2 2 3 3 3 4 4 4 4 4 3 4 4 3 3 3 4
1 5 8 7 6 2 3 2 5 4 7 7 7 8 9 10 9 7 6 6 6 7 7 7 7 7 7 7 6 6 6 4 3 3 3 3 2 2 3 4 4 4 3 4 4 4 4 4 4
5 7 5 6 6 4 3 1 7 7 6 9 10 10 10 9 9 9 9 9 8 9 8 8 8 7 7 7 6 6 6 5 5 5 4 3 2 2 4 4 3 3 4 4 3 3 3 3 3
3 10 8 4 4 4 3 2 7 5 3 5 8 11 11 9 9 10 11 10 9 10 9 9 8 7 7 7 6 5 5 4 3 4 4 4 3 3 3 3 3 3 3 3 3 2 3 2 3
4 4 9 8 2 0 3 3 6 2 5 6 7 10 10 10 11 10 10 9 9 9 9 9 9 7 7 7 6 5 5 4 4 4 3 3 2 2 2 2 2 2 2 2 3 2 2 2 2
8 7 7 6 4 2 3 3 5 4 6 7 9 10 9 9 9 9 9 9 8 8 7 8 8 8 7 6 6 5 4 4 4 3 3 3 3 2 2 2 2 2 2 2 2 2 2 2 2
3 4 6 5 6 6 3 7 8 10 9 10 10 10 11 11 11 10 9 8 8 7 7 7 7 6 6 6 5 4 4 4 4 3 3 3 2 2 2 2 2 2 2 2 2 2 2 2 1
7 7 9 6 4 5 4 9 7 8 8 10 10 9 9 10 10 10 10 9 8 8 7 7 7 7 6 6 5 5 4 4 4 3 3 3 2 2 2 2 2 1 1 1 2 1 1 1 1
Wind_Direction
256 216 161 115 52 56 84 90 95 81 62 63 77 83 83 67 107 131 134 133 132 131 130 127 125 123 120 117 115 112 110 108 106 106 105 105 106 107 107 108 108 107 107 107 109 110 110 111 113
259 208 131 56 75 78 78 94 95 97 115 104 84 83 77 71 89 114 126 137 133 132 130 129 127 125 124 122 120 118 115 112 111 109 109 108 109 110 111 111 111 110 110 110 110 111 111 113 114
253 201 90 65 87 124 119 110 113 108 109 101 96 78 80 109 118 127 140 139 132 128 129 135 130 128 127 126 125 122 120 118 117 115 113 113 114 114 114 114 114 113 113 113 112 112 112 113 114
84 54 48 67 89 119 127 129 121 111 91 80 95 80 80 121 127 134 140 138 129 128 131 138 134 132 131 129 128 127 125 123 120 118 117 117 118 118 118 119 119 118 115 114 114 113 112 112 112
79 66 50 56 91 99 119 126 123 110 96 93 94 93 77 91 121 134 140 138 134 133 134 138 136 135 134 133 132 130 128 126 124 122 122 121 120 119 120 121 122 122 121 118 115 113 111 109 109
52 61 65 59 87 96 115 120 111 108 114 111 106 103 98 128 134 141 141 140 139 139 139 139 140 139 138 138 136 134 133 131 130 128 126 123 121 121 122 125 125 125 125 123 119 115 112 108 108
106 91 133 146 104 112 132 125 123 129 130 136 128 106 116 145 145 142 140 138 139 141 141 141 144 144 144 142 140 139 138 137 135 132 130 129 127 127 127 130 131 131 131 129 127 123 117 110 106
140 101 67 119 126 140 151 123 130 134 126 133 130 129 151 163 145 136 135 135 137 143 146 146 143 141 142 144 145 145 144 143 140 139 138 138 136 135 133 135 137 137 137 136 136 132 125 117 110
107 80 167 182 149 164 142 110 115 113 119 137 124 130 147 145 138 133 133 134 144 151 154 152 149 147 145 150 154 150 149 150 147 145 146 138 122 124 132 145 147 145 145 146 145 142 137 119 94
106 138 206 182 155 154 138 121 122 107 109 100 100 110 131 139 142 146 151 155 160 162 167 165 161 161 162 162 143 143 149 148 143 144 142 132 140 152 149 157 155 152 152 154 157 159 154 93 56
148 172 186 144 146 136 130 117 114 121 133 149 145 144 145 146 150 155 160 161 163 164 167 168 168 168 169 154 152 157 152 150 159 163 159 148 146 147 139 140 148 147 150 143 159 149 341 252 149
111 180 149 154 152 126 135 128 121 139 162 158 151 150 151 155 159 160 161 160 157 157 164 162 163 167 166 157 162 164 160 165 172 176 164 151 147 148 151 152 155 151 147 163 171 228 285 271 185
27 33 69 131 128 132 123 127 127 138 141 144 146 149 156 161 163 160 156 154 153 156 160 161 158 159 158 157 168 165 168 171 173 169 170 162 156 161 162 166 174 177 174 174 185 225 245 212 178
317 4 357 348 101 129 122 121 113 136 141 147 153 161 166 167 164 157 156 157 156 159 159 156 159 158 153 154 161 166 171 171 168 170 172 165 160 161 165 171 177 189 187 182 182 198 196 186 171
338 9 346 319 122 135 108 94 139 149 149 156 163 170 172 172 166 168 168 163 161 160 157 158 161 155 152 156 162 164 169 165 169 173 173 165 161 162 160 165 178 196 193 183 175 184 154 169 158
355 16 327 290 188 159 114 148 171 154 152 163 170 174 176 178 175 171 166 161 160 157 158 164 162 156 157 159 155 156 159 162 170 168 165 164 166 164 159 168 190 196 184 170 164 162 141 158 157
0 320 277 284 243 150 122 160 183 160 157 161 168 175 177 173 172 166 163 161 163 162 161 163 157 160 162 157 144 137 149 158 170 163 160 168 170 170 166 178 189 179 166 173 182 157 158 180 192
263 269 278 262 245 129 127 165 177 164 160 161 163 166 178 181 179 167 161 160 159 160 159 159 159 163 157 140 121 108 131 157 170 167 171 169 170 173 170 178 186 170 153 168 174 164 170 181 188
236 267 288 280 224 107 142 169 176 165 163 162 160 167 177 187 178 160 158 157 156 159 160 162 162 168 156 148 145 141 168 178 177 182 184 175 172 174 174 178 175 170 164 180 176 162 170 205 159
257 293 304 308 346 110 138 129 176 169 181 176 170 171 171 169 168 165 160 162 164 166 167 163 167 170 169 168 160 161 168 179 181 178 187 187 178 182 181 175 180 180 172 183 184 167 160 215 165
291 241 255 271 10 41 81 3 316 244 195 175 171 172 171 172 177 172 168 169 166 170 173 172 170 170 173 167 147 139 110 95 136 181 198 206 195 193 191 184 180 184 180 190 196 179 171 195 219
275 261 249 49 65 338 90 219 287 233 212 184 174 174 176 175 173 172 172 171 173 177 172 166 166 168 171 166 162 169 175 185 194 186 194 210 207 199 197 191 186 185 186 193 202 189 180 173 203
230 254 31 74 101 35 11 108 288 15 186 210 188 179 181 176 174 177 178 175 173 172 168 168 162 167 170 171 171 176 183 184 174 168 188 208 217 206 201 193 192 194 196 201 204 193 192 187 191
214 40 28 42 65 31 282 132 275 234 202 198 190 178 178 176 172 170 169 157 162 164 164 165 165 170 172 172 173 179 181 179 174 183 193 205 212 212 209 201 194 193 199 206 204 201 198 201 196
73 76 29 1 11 262 275 152 253 250 205 182 175 170 172 167 161 162 165 166 173 169 168 169 170 172 173 173 179 182 182 181 189 191 193 192 198 210 219 210 192 195 208 207 197 195 201 200 199
157 133 152 189 221 277 329 232 263 257 182 151 159 164 166 166 167 171 174 173 176 174 171 169 173 175 174 176 181 180 181 184 193 195 191 191 198 208 208 195 192 197 199 201 191 192 200 198 210
158 170 167 139 163 335 294 287 314 51 114 137 155 162 169 173 172 173 173 171 173 173 173 171 172 173 175 177 177 182 182 185 191 192 188 186 191 196 193 187 195 203 196 195 183 194 210 191 206
164 154 96 109 147 240 288 250 224 205 176 173 171 173 175 173 167 165 168 172 172 170 169 166 170 173 175 179 183 183 183 181 176 167 173 179 189 190 179 184 191 195 191 186 183 204 207 182 213
168 135 119 126 150 152 220 263 227 198 189 180 181 179 175 173 169 166 169 171 165 159 159 162 166 167 170 174 171 167 168 167 162 168 177 178 177 171 174 185 183 184 200 196 187 202 193 190 220
179 178 147 152 206 160 166 262 263 198 190 174 174 174 174 171 169 168 165 159 159 160 160 162 164 164 166 162 155 159 158 154 158 166 169 163 158 158 166 164 158 170 183 180 176 186 182 169 210